User: anonymous   Login
Location: Pine Mountain Observatory
(43.7910°N, 120.9377°W)
Time: 04:37:29
(UTC-07:00)
Language:

APEX - Orbit

View from above orbital plane
View from above orbital plane
View from above satellite
View from above satellite

Ground track
Ground track

The orbit data is extracted from the following two-line orbital elements,

1 23191U 94046A   16182.17631215  .00004477  00000-0  15815-3 0  9998
2 23191  69.9258 311.3807 0628422  13.0652 348.5926 14.31943368 66057
Epoch (UTC): 30 June 2016 04:13:53
Eccentricity: 0.0628422
inclination: 69.9258°
perigee height: 335 km
apogee height: 1235 km
right ascension of ascending node: 311.3807°
argument of perigee: 13.0652°
revolutions per day: 14.31943368
mean anomaly at epoch: 348.5926°
orbit number at epoch: 6605

The dashed part of the orbit path shows where the satellite is in the earth's shadow,  

DLR